01:47
Airports
History
Links
Donate
Help keep this website running!
PayPal
Bitcoin
This page is community maintained. The information is intended for PC simulator navigation or reference.
Always use approved charts for navigation.
LFOH
Le Havre-Octeville
Le Havre-Octeville (LFOH)
Le Havre, Haute-Normandie, France (76620)
(C)
Lat/Lng:49° 32' 2.68" N / 0° 5' 18.45" E
49.534079 / 0.088457
Elevation:311'ft / 95mMSL
ID / ICAO:LFOH
Runways:1
Longest:05-23
Asphalt 2,301m / 7,551ft
Controlled:Yes
METAR01:30 GMT 2017-11-24
Altimeter: 29.68
Visibility: 6.2 statute miles
Wind: 13 knots (from 020°)
Temp: 8°c / 46°f
Humidity: 100.0%

METAR: LFOH 240130Z AUTO 02013KT 9999 SCT006 SCT028 OVC050 08/08 Q1005

(Powered by phpweather)
Airport Radio Frequencies
ATIS: 126.17
Tower: 135.2
Approach: 120.35
Nearby VORs <50NM
Nearby NDBs
Runway 05 / 23
Dimensions:2301.4 x 39.9m 7551' x 131'ft
Surface:Asphalt
Edge Lights:Medium intensity
Runway 05 [A]Runway 23 [B]
Heading:043°TH 223°TH
Lat:
Lng:
49° 31' 35.47"N
0° 4' 39.24"E
49° 32' 29.9"N
0° 5' 57.65"E
ALS:RAILSALS
User Notes and Comments
49° 32' 2.68" N / 0° 5' 18.45" E
Distance To
Airport ID:
Nearby Airports
(C) Deauville Saint Gatien 12.0 NM
LFRG SSE 165°
4 Le Havre Saint Romain 12.2 NM
LFOY E 86°
(C) Yvetot 29.5 NM
7622 ENE 75°
(U) Yvetot 29.8 NM
LF11 ENE 75°
(C) Saint Valery Vittefleur 32.9 NM
LFOS NE 50°
(C) Caen Carpiquet 34.8 NM
LFRK ( WX ) SW 224°
4 Bernay Saint Martin 36.8 NM
LFPD SE 144°
VFR Chart
Flight Planning at SkyVector.com